DLH188 EDDF-LUKK

Flight info

Callsign DLH188
Flight time 1h 53m
Altitude 31000
Route SULUS4D SULUS Z650 VEMUT/N0460F350 DCT SLC DCT RIGSA DCT KUSIS DCT UNIRA
Aircraft A320/M-SDE3FGHIRWY/LB1

Departure

Time 2026-05-08 03:53
Airport Frankfurt Main Airport (EDDF)

Arrival

Time 2026-05-08 05:47
Airport Chişinău International Airport (LUKK)
Time Latitude Longitude Altitude Speed Heading
2026-05-08 03:25 50.04655 8.56810 356 ft 0 kts 295°
2026-05-08 03:44 50.04648 8.56834 363 ft 4 kts 295°
2026-05-08 03:44 50.04638 8.56868 362 ft 2 kts 295°
2026-05-08 03:44 50.04631 8.56905 360 ft 4 kts 259°
2026-05-08 03:45 50.04644 8.56932 365 ft 4 kts 200°
2026-05-08 03:45 50.04669 8.56945 357 ft 3 kts 204°
2026-05-08 03:45 50.04654 8.56934 364 ft 4 kts 204°
2026-05-08 03:45 50.04648 8.56930 364 ft 0 kts 204°
2026-05-08 03:48 50.04645 8.56928 364 ft 2 kts 204°
2026-05-08 03:48 50.04613 8.56914 356 ft 7 kts 194°
2026-05-08 03:48 50.04554 8.56891 362 ft 9 kts 194°
2026-05-08 03:48 50.04476 8.56865 359 ft 14 kts 191°
2026-05-08 03:49 50.04366 8.56834 360 ft 18 kts 189°
2026-05-08 03:49 50.04275 8.56805 359 ft 10 kts 193°
2026-05-08 03:49 50.04230 8.56714 359 ft 13 kts 255°
2026-05-08 03:49 50.04189 8.56543 358 ft 20 kts 249°
2026-05-08 03:50 50.04133 8.56309 354 ft 26 kts 251°
2026-05-08 03:50 50.04066 8.56023 358 ft 29 kts 250°
2026-05-08 03:50 50.03997 8.55734 349 ft 30 kts 251°
2026-05-08 03:50 50.03920 8.55413 358 ft 33 kts 250°
2026-05-08 03:51 50.03841 8.55079 350 ft 29 kts 250°
2026-05-08 03:51 50.03774 8.54803 353 ft 20 kts 249°
2026-05-08 03:51 50.03728 8.54680 348 ft 11 kts 190°
2026-05-08 03:51 50.03662 8.54725 351 ft 10 kts 158°
2026-05-08 03:52 50.03598 8.54761 349 ft 9 kts 161°
2026-05-08 03:52 50.03612 8.54921 350 ft 33 kts 68°
2026-05-08 03:52 50.03780 8.55622 350 ft 102 kts 71°
2026-05-08 03:52 50.04094 8.56923 363 ft 153 kts 68°
2026-05-08 03:53 50.04515 8.58563 810 ft 163 kts 68°
2026-05-08 03:53 50.04905 8.60228 1517 ft 165 kts 71°
2026-05-08 03:53 50.05291 8.61994 1936 ft 182 kts 71°
2026-05-08 03:53 50.05721 8.63980 2211 ft 205 kts 71°
2026-05-08 03:54 50.06198 8.66162 2600 ft 223 kts 71°
2026-05-08 03:54 50.06702 8.68459 3395 ft 227 kts 71°
2026-05-08 03:54 50.07142 8.70868 4161 ft 232 kts 84°
2026-05-08 03:54 50.07049 8.73444 4685 ft 250 kts 99°
2026-05-08 03:55 50.06732 8.76212 5212 ft 266 kts 100°
2026-05-08 03:55 50.06391 8.79082 5995 ft 272 kts 100°
2026-05-08 03:55 50.06046 8.81970 6784 ft 278 kts 100°
2026-05-08 03:55 50.05775 8.84963 7553 ft 282 kts 91°
2026-05-08 03:56 50.05816 8.88038 8347 ft 286 kts 88°
2026-05-08 03:56 50.05873 8.91146 9156 ft 290 kts 88°
2026-05-08 03:56 50.05932 8.94304 9956 ft 294 kts 88°
2026-05-08 03:56 50.05988 8.97528 10504 ft 307 kts 88°
2026-05-08 03:57 50.06045 9.00967 10723 ft 330 kts 89°
2026-05-08 03:57 50.06102 9.04661 10889 ft 353 kts 89°
2026-05-08 03:57 50.06163 9.08601 11020 ft 375 kts 89°
2026-05-08 03:57 50.06226 9.12762 11243 ft 392 kts 89°
2026-05-08 03:58 50.06290 9.17044 11751 ft 398 kts 88°
2026-05-08 03:58 50.06353 9.21378 12351 ft 402 kts 89°
2026-05-08 03:58 50.06414 9.25750 12937 ft 406 kts 89°
2026-05-08 03:58 50.06473 9.30169 13536 ft 410 kts 89°
2026-05-08 03:59 50.06532 9.34619 14080 ft 413 kts 89°
2026-05-08 03:59 50.06590 9.39112 14588 ft 417 kts 89°
2026-05-08 03:59 50.06645 9.43635 15093 ft 420 kts 89°
2026-05-08 03:59 50.06697 9.48199 15592 ft 423 kts 89°
2026-05-08 04:00 50.06749 9.52801 16078 ft 427 kts 89°
2026-05-08 04:00 50.06802 9.57435 16547 ft 430 kts 89°
2026-05-08 04:00 50.06854 9.62094 17024 ft 433 kts 89°
2026-05-08 04:00 50.06902 9.66801 17501 ft 436 kts 90°
2026-05-08 04:01 50.06948 9.71538 17960 ft 439 kts 90°
2026-05-08 04:01 50.06992 9.76243 18414 ft 442 kts 90°
2026-05-08 04:01 50.07038 9.81043 18810 ft 445 kts 90°
2026-05-08 04:01 50.07082 9.85872 19211 ft 448 kts 90°
2026-05-08 04:02 50.07124 9.90718 19601 ft 450 kts 90°
2026-05-08 04:02 50.07161 9.95602 19987 ft 452 kts 90°
2026-05-08 04:02 50.07197 10.00513 20354 ft 455 kts 90°
2026-05-08 04:02 50.07231 10.05450 20719 ft 457 kts 90°
2026-05-08 04:03 50.07252 10.08737 20966 ft 459 kts 90°
2026-05-08 04:03 50.07306 10.18728 21616 ft 465 kts 90°
2026-05-08 04:03 50.07330 10.23771 21961 ft 467 kts 90°
2026-05-08 04:04 50.07355 10.28843 22304 ft 469 kts 90°
2026-05-08 04:04 50.07383 10.33938 22637 ft 472 kts 90°
2026-05-08 04:04 50.07411 10.39057 22960 ft 474 kts 90°
2026-05-08 04:04 50.07438 10.44193 23265 ft 476 kts 90°
2026-05-08 04:05 50.07461 10.49363 23565 ft 478 kts 90°
2026-05-08 04:05 50.07480 10.54555 23838 ft 481 kts 90°
2026-05-08 04:05 50.07496 10.59769 24086 ft 483 kts 90°
2026-05-08 04:05 50.07506 10.65003 24341 ft 484 kts 90°
2026-05-08 04:06 50.07421 10.70245 24595 ft 486 kts 96°
2026-05-08 04:06 50.06891 10.75430 24880 ft 485 kts 104°
2026-05-08 04:06 50.05927 10.80443 25231 ft 483 kts 110°
2026-05-08 04:06 50.04870 10.85399 25585 ft 482 kts 109°
2026-05-08 04:07 50.03824 10.90344 25941 ft 482 kts 109°
2026-05-08 04:07 50.02782 10.95298 26312 ft 481 kts 109°
2026-05-08 04:07 50.01742 11.00241 26664 ft 481 kts 109°
2026-05-08 04:07 50.00699 11.05180 27008 ft 481 kts 109°
2026-05-08 04:08 49.99652 11.10113 27380 ft 480 kts 109°
2026-05-08 04:08 49.98603 11.15028 27730 ft 480 kts 109°
2026-05-08 04:08 49.97545 11.19954 28102 ft 479 kts 109°
2026-05-08 04:08 49.96487 11.24851 28474 ft 479 kts 109°
2026-05-08 04:09 49.95433 11.29763 28847 ft 478 kts 109°
2026-05-08 04:09 49.94387 11.34666 29225 ft 478 kts 109°
2026-05-08 04:09 49.93348 11.39553 29602 ft 477 kts 109°
2026-05-08 04:09 49.92337 11.44459 29970 ft 477 kts 107°
2026-05-08 04:10 49.91403 11.49403 30297 ft 477 kts 106°
2026-05-08 04:10 49.90520 11.54367 30586 ft 477 kts 105°
2026-05-08 04:10 49.89651 11.59336 30887 ft 477 kts 105°
2026-05-08 04:10 49.88773 11.64303 31059 ft 478 kts 106°
2026-05-08 04:11 49.87577 11.74534 31080 ft 485 kts 97°
2026-05-08 04:11 49.86665 11.84903 31083 ft 486 kts 98°
2026-05-08 04:12 49.85721 11.95294 31077 ft 487 kts 98°
2026-05-08 04:12 49.84776 12.05701 31076 ft 488 kts 98°
2026-05-08 04:13 49.83837 12.16096 31075 ft 487 kts 98°
2026-05-08 04:13 49.82891 12.26490 31083 ft 487 kts 98°
2026-05-08 04:14 49.81931 12.36874 31075 ft 487 kts 98°
2026-05-08 04:14 49.80876 12.47273 31421 ft 489 kts 103°
2026-05-08 04:15 49.80018 12.52370 31701 ft 489 kts 105°
2026-05-08 04:15 49.79147 12.57459 31981 ft 489 kts 105°
2026-05-08 04:15 49.78275 12.62532 32264 ft 489 kts 105°
2026-05-08 04:15 49.77397 12.67609 32549 ft 488 kts 105°
2026-05-08 04:16 49.76518 12.72683 32825 ft 488 kts 105°
2026-05-08 04:16 49.75639 12.77752 33088 ft 488 kts 105°
2026-05-08 04:16 49.74758 12.82824 33342 ft 488 kts 105°
2026-05-08 04:16 49.73888 12.87828 33596 ft 488 kts 105°
2026-05-08 04:17 49.72996 12.92960 33882 ft 488 kts 105°
2026-05-08 04:17 49.72114 12.98024 34154 ft 488 kts 105°
2026-05-08 04:17 49.71240 13.03021 34388 ft 488 kts 105°
2026-05-08 04:17 49.70351 13.08069 34618 ft 487 kts 105°
2026-05-08 04:18 49.69456 13.13115 34874 ft 487 kts 106°
2026-05-08 04:18 49.68558 13.18161 35066 ft 487 kts 106°
2026-05-08 04:18 49.66762 13.28232 35109 ft 487 kts 106°
2026-05-08 04:19 49.64963 13.38297 35118 ft 486 kts 106°
2026-05-08 04:19 49.63160 13.48357 35092 ft 486 kts 106°
2026-05-08 04:20 49.61345 13.58405 35105 ft 487 kts 106°
2026-05-08 04:20 49.59513 13.68470 35092 ft 488 kts 107°
2026-05-08 04:21 49.57668 13.78539 35080 ft 488 kts 107°
2026-05-08 04:21 49.55813 13.88603 35080 ft 488 kts 107°
2026-05-08 04:22 49.53952 13.98663 35079 ft 488 kts 107°
2026-05-08 04:22 49.52089 14.08713 35077 ft 489 kts 107°
2026-05-08 04:23 49.50214 14.18776 35083 ft 489 kts 107°
2026-05-08 04:23 49.48322 14.28838 35082 ft 490 kts 107°
2026-05-08 04:24 49.46417 14.38899 35087 ft 490 kts 107°
2026-05-08 04:24 49.44498 14.48956 35079 ft 490 kts 107°
2026-05-08 04:25 49.42583 14.59014 35085 ft 491 kts 107°
2026-05-08 04:25 49.40660 14.69057 35095 ft 491 kts 107°
2026-05-08 04:26 49.38721 14.79101 35079 ft 491 kts 107°
2026-05-08 04:26 49.36771 14.89139 35085 ft 491 kts 108°
2026-05-08 04:27 49.34828 14.99107 35098 ft 491 kts 108°
2026-05-08 04:27 49.32861 15.09127 35087 ft 491 kts 108°
2026-05-08 04:28 49.30889 15.19154 35091 ft 491 kts 108°
2026-05-08 04:28 49.28901 15.29173 35091 ft 491 kts 108°
2026-05-08 04:29 49.26915 15.39166 35095 ft 491 kts 108°
2026-05-08 04:29 49.24920 15.49147 35099 ft 490 kts 108°
2026-05-08 04:30 49.22907 15.59110 35100 ft 490 kts 108°
2026-05-08 04:30 49.20891 15.69068 35090 ft 490 kts 108°
2026-05-08 04:31 49.18872 15.79022 35091 ft 490 kts 109°
2026-05-08 04:31 49.16842 15.88957 35093 ft 490 kts 109°
2026-05-08 04:32 49.14806 15.98901 35086 ft 490 kts 109°
2026-05-08 04:32 49.12760 16.08843 35086 ft 491 kts 109°
2026-05-08 04:33 49.10703 16.18768 35087 ft 491 kts 109°
2026-05-08 04:33 49.08635 16.28688 35091 ft 490 kts 109°
2026-05-08 04:34 49.06559 16.38596 35095 ft 490 kts 109°
2026-05-08 04:34 49.04483 16.48496 35090 ft 490 kts 109°
2026-05-08 04:35 49.02409 16.58316 35079 ft 490 kts 110°
2026-05-08 04:35 49.00308 16.68183 35078 ft 490 kts 110°
2026-05-08 04:36 48.98193 16.78043 35071 ft 490 kts 110°
2026-05-08 04:36 48.96084 16.87891 35058 ft 490 kts 110°
2026-05-08 04:37 48.93970 16.97742 35057 ft 489 kts 110°
2026-05-08 04:37 48.91836 17.07567 35047 ft 489 kts 110°
2026-05-08 04:38 48.89697 17.17386 35051 ft 490 kts 110°
2026-05-08 04:38 48.87553 17.27210 35051 ft 490 kts 110°
2026-05-08 04:39 48.85404 17.37023 35050 ft 490 kts 110°
2026-05-08 04:39 48.83234 17.46836 35050 ft 490 kts 110°
2026-05-08 04:40 48.81052 17.56643 35053 ft 490 kts 110°
2026-05-08 04:40 48.78870 17.66445 35056 ft 490 kts 111°
2026-05-08 04:41 48.76677 17.76234 35034 ft 490 kts 111°
2026-05-08 04:41 48.74482 17.85999 35043 ft 490 kts 111°
2026-05-08 04:42 48.72279 17.95766 35047 ft 490 kts 111°
2026-05-08 04:42 48.70063 18.05517 35053 ft 489 kts 111°
2026-05-08 04:43 48.67843 18.15253 35049 ft 489 kts 112°
2026-05-08 04:43 48.65622 18.24978 35053 ft 489 kts 112°
2026-05-08 04:44 48.63391 18.34685 35053 ft 488 kts 112°
2026-05-08 04:44 48.61148 18.44367 35058 ft 488 kts 112°
2026-05-08 04:45 48.58895 18.54043 35045 ft 488 kts 112°
2026-05-08 04:45 48.56642 18.63705 35051 ft 487 kts 112°
2026-05-08 04:46 48.54389 18.73346 35054 ft 487 kts 112°
2026-05-08 04:46 48.52120 18.82975 35058 ft 487 kts 113°
2026-05-08 04:47 48.49841 18.92590 35041 ft 487 kts 113°
2026-05-08 04:47 48.47579 19.02138 35043 ft 487 kts 113°
2026-05-08 04:48 48.45319 19.11771 35046 ft 489 kts 110°
2026-05-08 04:48 48.43609 19.21709 35048 ft 490 kts 108°
2026-05-08 04:49 48.42196 19.30033 35046 ft 490 kts 108°
2026-05-08 04:49 48.40502 19.39969 35029 ft 490 kts 108°
2026-05-08 04:50 48.38807 19.49831 35036 ft 490 kts 108°
2026-05-08 04:50 48.37093 19.59759 35040 ft 490 kts 108°
2026-05-08 04:51 48.35374 19.69670 35042 ft 490 kts 108°
2026-05-08 04:51 48.33632 19.79642 35024 ft 489 kts 109°
2026-05-08 04:52 48.31898 19.89516 35034 ft 489 kts 109°
2026-05-08 04:52 48.30163 19.99317 35041 ft 488 kts 109°
2026-05-08 04:53 48.28416 20.09171 35038 ft 488 kts 109°
2026-05-08 04:53 48.26663 20.19004 35024 ft 487 kts 109°
2026-05-08 04:54 48.24903 20.28808 35029 ft 486 kts 109°
2026-05-08 04:54 48.23136 20.38592 35035 ft 486 kts 109°
2026-05-08 04:55 48.21367 20.48350 35033 ft 485 kts 109°
2026-05-08 04:55 48.19590 20.58109 35010 ft 485 kts 109°
2026-05-08 04:56 48.17800 20.67841 35033 ft 484 kts 109°
2026-05-08 04:56 48.16003 20.77562 35036 ft 484 kts 109°
2026-05-08 04:57 48.14296 20.87309 35039 ft 484 kts 108°
2026-05-08 04:57 48.12647 20.97085 35025 ft 484 kts 108°
2026-05-08 04:58 48.10981 21.06826 35036 ft 482 kts 108°
2026-05-08 04:58 48.09288 21.16529 35042 ft 482 kts 109°
2026-05-08 04:59 48.07577 21.26209 35043 ft 481 kts 109°
2026-05-08 04:59 48.05859 21.35877 35042 ft 481 kts 109°
2026-05-08 05:00 48.04144 21.45535 35042 ft 481 kts 109°
2026-05-08 05:00 48.02418 21.55195 35044 ft 481 kts 109°
2026-05-08 05:01 48.00683 21.64854 35055 ft 481 kts 109°
2026-05-08 05:01 47.98945 21.74491 35040 ft 481 kts 109°
2026-05-08 05:02 47.97197 21.84113 35062 ft 480 kts 109°
2026-05-08 05:02 47.95448 21.93709 35068 ft 479 kts 109°
2026-05-08 05:03 47.93687 22.03286 35067 ft 478 kts 109°
2026-05-08 05:03 47.91919 22.12835 35035 ft 478 kts 109°
2026-05-08 05:04 47.90153 22.22375 35045 ft 477 kts 109°
2026-05-08 05:04 47.88401 22.31836 35049 ft 476 kts 109°
2026-05-08 05:05 47.86843 22.41440 35053 ft 480 kts 102°
2026-05-08 05:05 47.85819 22.51331 35052 ft 480 kts 102°
2026-05-08 05:06 47.84799 22.61084 35035 ft 480 kts 102°
2026-05-08 05:06 47.83762 22.70892 35046 ft 480 kts 103°
2026-05-08 05:07 47.82717 22.80696 35053 ft 480 kts 103°
2026-05-08 05:07 47.81655 22.90520 35057 ft 481 kts 103°
2026-05-08 05:08 47.80586 23.00331 35054 ft 481 kts 102°
2026-05-08 05:08 47.79513 23.10144 35050 ft 480 kts 103°
2026-05-08 05:09 47.78442 23.19934 35051 ft 479 kts 103°
2026-05-08 05:09 47.77354 23.29710 35045 ft 479 kts 103°
2026-05-08 05:10 47.75708 23.44361 35045 ft 479 kts 103°
2026-05-08 05:11 47.74601 23.54119 35086 ft 478 kts 103°
2026-05-08 05:11 47.73484 23.63852 35086 ft 478 kts 103°
2026-05-08 05:12 47.72367 23.73525 35082 ft 478 kts 103°
2026-05-08 05:12 47.71228 23.83303 35066 ft 478 kts 103°
2026-05-08 05:13 47.70096 23.93013 35069 ft 477 kts 103°
2026-05-08 05:13 47.68964 24.02649 35068 ft 477 kts 103°
2026-05-08 05:14 47.67812 24.12338 35069 ft 476 kts 103°
2026-05-08 05:14 47.66649 24.22014 35047 ft 476 kts 103°
2026-05-08 05:15 47.65484 24.31678 35051 ft 476 kts 103°
2026-05-08 05:15 47.64310 24.41329 35046 ft 476 kts 103°
2026-05-08 05:16 47.63124 24.50983 35049 ft 476 kts 103°
2026-05-08 05:16 47.61938 24.60631 35044 ft 476 kts 103°
2026-05-08 05:17 47.60745 24.70280 35024 ft 476 kts 104°
2026-05-08 05:17 47.59534 24.79936 35030 ft 477 kts 104°
2026-05-08 05:18 47.58315 24.89583 35031 ft 477 kts 104°
2026-05-08 05:18 47.57081 24.99229 35032 ft 477 kts 104°
2026-05-08 05:19 47.55850 25.08874 35019 ft 477 kts 104°
2026-05-08 05:19 47.54622 25.18526 35023 ft 477 kts 104°
2026-05-08 05:20 47.53379 25.28165 35021 ft 477 kts 104°
2026-05-08 05:20 47.52121 25.37744 35018 ft 477 kts 104°
2026-05-08 05:21 47.50848 25.47375 35022 ft 477 kts 104°
2026-05-08 05:21 47.49574 25.57004 35022 ft 477 kts 104°
2026-05-08 05:22 47.48302 25.66627 35019 ft 476 kts 104°
2026-05-08 05:22 47.47014 25.76221 35018 ft 476 kts 104°
2026-05-08 05:23 47.45712 25.85804 35002 ft 475 kts 104°
2026-05-08 05:23 47.44408 25.95371 35004 ft 475 kts 104°
2026-05-08 05:24 47.43106 26.04928 35010 ft 475 kts 104°
2026-05-08 05:24 47.41796 26.14480 35010 ft 474 kts 104°
2026-05-08 05:25 47.40474 26.24016 35002 ft 474 kts 104°
2026-05-08 05:25 47.39146 26.33554 35001 ft 474 kts 104°
2026-05-08 05:26 47.37809 26.43087 35003 ft 475 kts 104°
2026-05-08 05:26 47.36472 26.52563 34892 ft 476 kts 104°
2026-05-08 05:26 47.35795 26.57333 34647 ft 476 kts 104°
2026-05-08 05:27 47.35113 26.62107 34249 ft 476 kts 104°
2026-05-08 05:27 47.34419 26.66929 33078 ft 484 kts 104°
2026-05-08 05:27 47.33718 26.71789 32127 ft 486 kts 104°
2026-05-08 05:27 47.33011 26.76682 31255 ft 487 kts 104°
2026-05-08 05:28 47.32309 26.81550 30020 ft 483 kts 104°
2026-05-08 05:28 47.31616 26.86359 28734 ft 476 kts 104°
2026-05-08 05:28 47.30931 26.91106 27626 ft 475 kts 104°
2026-05-08 05:28 47.30236 26.95899 26379 ft 480 kts 104°
2026-05-08 05:29 47.29534 27.00710 25120 ft 480 kts 104°
2026-05-08 05:29 47.28829 27.05507 23923 ft 479 kts 104°
2026-05-08 05:29 47.28127 27.10284 22700 ft 474 kts 104°
2026-05-08 05:29 47.27439 27.14965 21853 ft 464 kts 104°
2026-05-08 05:30 47.26755 27.19592 21004 ft 460 kts 105°
2026-05-08 05:30 47.26073 27.24172 20154 ft 458 kts 105°
2026-05-08 05:30 47.25392 27.28747 19313 ft 456 kts 105°
2026-05-08 05:30 47.24715 27.33299 18501 ft 455 kts 105°
2026-05-08 05:31 47.24037 27.37831 17622 ft 453 kts 105°
2026-05-08 05:31 47.23359 27.42337 16852 ft 449 kts 105°
2026-05-08 05:31 47.22694 27.46755 16077 ft 436 kts 105°
2026-05-08 05:31 47.22049 27.51048 15380 ft 423 kts 105°
2026-05-08 05:32 47.21422 27.55224 14705 ft 412 kts 105°
2026-05-08 05:32 47.20805 27.59298 14052 ft 407 kts 105°
2026-05-08 05:32 47.20188 27.63348 13356 ft 404 kts 105°
2026-05-08 05:32 47.19574 27.67360 12727 ft 399 kts 106°
2026-05-08 05:33 47.18967 27.71318 12108 ft 395 kts 106°
2026-05-08 05:33 47.18366 27.75234 11496 ft 390 kts 106°
2026-05-08 05:33 47.17781 27.79050 11311 ft 374 kts 106°
2026-05-08 05:33 47.17224 27.82691 11193 ft 358 kts 106°
2026-05-08 05:34 47.16576 27.86123 11068 ft 340 kts 114°
2026-05-08 05:34 47.15705 27.89269 10930 ft 326 kts 115°
2026-05-08 05:34 47.14876 27.92251 10805 ft 312 kts 115°
2026-05-08 05:34 47.14085 27.95130 10635 ft 296 kts 115°
2026-05-08 05:35 47.13334 27.97875 10515 ft 284 kts 115°
2026-05-08 05:35 47.12601 28.00542 10274 ft 280 kts 116°
2026-05-08 05:35 47.11872 28.03180 10023 ft 278 kts 116°
2026-05-08 05:35 47.11143 28.05808 9882 ft 278 kts 116°
2026-05-08 05:36 47.10412 28.08434 9620 ft 278 kts 115°
2026-05-08 05:36 47.09683 28.11054 9304 ft 277 kts 116°
2026-05-08 05:36 47.08958 28.13665 8948 ft 276 kts 116°
2026-05-08 05:36 47.08239 28.16262 8584 ft 274 kts 115°
2026-05-08 05:37 47.07755 28.18009 8347 ft 273 kts 115°
2026-05-08 05:37 47.06810 28.21405 7886 ft 271 kts 115°
2026-05-08 05:37 47.06096 28.23952 7537 ft 270 kts 116°
2026-05-08 05:37 47.05616 28.25666 7305 ft 269 kts 115°
2026-05-08 05:38 47.04918 28.28166 6970 ft 268 kts 115°
2026-05-08 05:38 47.04211 28.30684 6631 ft 267 kts 115°
2026-05-08 05:38 47.03508 28.33190 6289 ft 265 kts 115°
2026-05-08 05:38 47.02808 28.35685 5931 ft 264 kts 115°
2026-05-08 05:39 47.02109 28.38166 5581 ft 262 kts 118°
2026-05-08 05:39 47.01205 28.40459 5238 ft 259 kts 126°
2026-05-08 05:39 47.00237 28.42676 4891 ft 258 kts 126°
2026-05-08 05:39 46.99276 28.44883 4537 ft 257 kts 126°
2026-05-08 05:40 46.98321 28.47078 4186 ft 255 kts 126°
2026-05-08 05:40 46.97374 28.49256 3868 ft 252 kts 126°
2026-05-08 05:40 46.96446 28.51388 3706 ft 245 kts 127°
2026-05-08 05:40 46.95534 28.53484 3612 ft 240 kts 127°
2026-05-08 05:41 46.94692 28.55494 3615 ft 225 kts 126°
2026-05-08 05:41 46.93895 28.57475 3442 ft 224 kts 126°
2026-05-08 05:41 46.93121 28.59421 3242 ft 219 kts 125°
2026-05-08 05:41 46.92384 28.61374 3143 ft 221 kts 116°
2026-05-08 05:42 46.92124 28.63605 3134 ft 227 kts 94°
2026-05-08 05:42 46.92177 28.65858 3124 ft 215 kts 93°
2026-05-08 05:42 46.92235 28.67979 3156 ft 204 kts 94°
2026-05-08 05:42 46.92283 28.70033 3118 ft 200 kts 94°
2026-05-08 05:43 46.92328 28.72054 2920 ft 197 kts 94°
2026-05-08 05:43 46.92372 28.74035 2681 ft 191 kts 95°
2026-05-08 05:43 46.92416 28.75915 2453 ft 179 kts 95°
2026-05-08 05:43 46.92454 28.77708 2206 ft 174 kts 96°
2026-05-08 05:44 46.92492 28.79452 1973 ft 167 kts 96°
2026-05-08 05:44 46.92529 28.81091 1756 ft 156 kts 96°
2026-05-08 05:44 46.92562 28.82670 1548 ft 155 kts 95°
2026-05-08 05:44 46.92595 28.84235 1335 ft 153 kts 94°
2026-05-08 05:45 46.92627 28.85777 1122 ft 150 kts 92°
2026-05-08 05:45 46.92659 28.87286 919 ft 147 kts 92°
2026-05-08 05:45 46.92690 28.88790 722 ft 149 kts 95°
2026-05-08 05:45 46.92727 28.90296 513 ft 148 kts 94°
2026-05-08 05:46 46.92762 28.91759 408 ft 134 kts 92°
2026-05-08 05:46 46.92767 28.92857 408 ft 83 kts 89°
2026-05-08 05:46 46.92782 28.93615 408 ft 68 kts 87°
2026-05-08 05:46 46.92801 28.94250 408 ft 58 kts 87°
2026-05-08 05:47 46.92814 28.94785 408 ft 46 kts 88°
2026-05-08 05:47 46.92828 28.95084 407 ft 15 kts 62°
2026-05-08 05:47 46.92890 28.95116 409 ft 9 kts 356°
2026-05-08 05:47 46.92946 28.95112 409 ft 7 kts 357°
2026-05-08 05:48 46.92989 28.95109 410 ft 6 kts 357°
2026-05-08 05:48 46.93014 28.95052 410 ft 11 kts 279°
2026-05-08 05:48 46.93026 28.94908 407 ft 18 kts 276°
2026-05-08 05:48 46.93045 28.94690 408 ft 25 kts 277°
2026-05-08 05:49 46.93068 28.94404 406 ft 31 kts 276°
2026-05-08 05:49 46.93095 28.94090 406 ft 30 kts 276°
2026-05-08 05:49 46.93113 28.93872 407 ft 10 kts 277°
2026-05-08 05:49 46.93143 28.93804 407 ft 7 kts 346°
2026-05-08 05:50 46.93191 28.93810 408 ft 7 kts
2026-05-08 05:50 46.93243 28.93820 408 ft 7 kts
2026-05-08 05:50 46.93258 28.93779 408 ft 4 kts 269°
2026-05-08 05:50 46.93259 28.93739 408 ft 4 kts 274°
2026-05-08 05:51 46.93263 28.93679 408 ft 8 kts 277°
2026-05-08 05:51 46.93273 28.93571 408 ft 13 kts 277°
2026-05-08 05:51 46.93287 28.93471 406 ft 5 kts 323°
2026-05-08 05:51 46.93342 28.93477 408 ft 10 kts
2026-05-08 05:52 46.93407 28.93488 408 ft 7 kts
2026-05-08 05:52 46.93417 28.93540 408 ft 7 kts 92°
2026-05-08 05:52 46.93409 28.93634 408 ft 12 kts 97°
2026-05-08 05:52 46.93398 28.93771 406 ft 11 kts 97°
2026-05-08 05:53 46.93369 28.93841 408 ft 9 kts 177°
2026-05-08 05:53 46.93298 28.93831 408 ft 12 kts 186°
2026-05-08 05:53 46.93257 28.93793 408 ft 7 kts 279°
2026-05-08 05:53 46.93262 28.93693 408 ft 12 kts 278°
2026-05-08 05:54 46.93273 28.93562 408 ft 11 kts 277°
2026-05-08 05:54 46.93292 28.93470 407 ft 7 kts 339°
2026-05-08 05:54 46.93327 28.93519 408 ft 9 kts 90°
2026-05-08 05:54 46.93319 28.93621 408 ft 8 kts 97°
2026-05-08 05:55 46.93332 28.93663 406 ft 5 kts 17°
2026-05-08 05:55 46.93357 28.93671 408 ft 2 kts
2026-05-08 05:55 46.93364 28.93672 408 ft 0 kts
2026-05-08 05:55 46.93365 28.93672 408 ft 0 kts